Temp
-14 -13 -13 -13 -12 -12 -11 -10 -10 -10 -11 -11 -11 -10 -10 -9 -9 -9 -9 -9 -9 -9 -9 -9 -9 -10 -9 -9 -10 -10 -10 -10 -10 -10 -10 -11 -11 -11 -11 -11 -11 -10 -10
-13 -13 -14 -14 -13 -13 -12 -11 -10 -11 -11 -11 -11 -10 -10 -10 -10 -10 -9 -10 -10 -10 -10 -10 -10 -10 -10 -10 -10 -11 -11 -11 -10 -11 -11 -11 -11 -11 -11 -11 -11 -11 -11
-14 -14 -14 -13 -12 -12 -12 -11 -11 -11 -12 -12 -11 -11 -12 -11 -10 -9 -10 -10 -10 -10 -10 -10 -10 -11 -11 -11 -11 -11 -11 -11 -11 -11 -11 -11 -11 -11 -11 -11 -11 -11 -11
-14 -14 -14 -13 -13 -12 -11 -11 -11 -11 -12 -12 -12 -12 -12 -10 -10 -10 -11 -10 -10 -10 -10 -10 -11 -11 -11 -11 -11 -11 -11 -11 -12 -12 -12 -12 -12 -12 -11 -11 -12 -12 -12
-14 -14 -14 -13 -13 -13 -11 -11 -11 -11 -11 -12 -12 -12 -11 -11 -11 -11 -11 -11 -11 -10 -10 -10 -11 -11 -11 -11 -11 -12 -11 -12 -12 -12 -12 -12 -12 -12 -12 -12 -12 -12 -12
-15 -14 -14 -13 -13 -13 -12 -10 -12 -11 -11 -12 -12 -12 -11 -12 -12 -11 -11 -11 -11 -11 -11 -11 -11 -12 -12 -11 -12 -12 -12 -12 -12 -12 -12 -12 -12 -12 -12 -12 -12 -12 -12
-14 -14 -14 -13 -12 -13 -12 -10 -12 -11 -11 -12 -12 -11 -12 -12 -12 -11 -12 -11 -11 -11 -11 -11 -12 -12 -12 -12 -12 -12 -12 -13 -13 -13 -12 -12 -12 -12 -12 -12 -12 -12 -12
-13 -14 -14 -13 -12 -12 -12 -11 -12 -12 -11 -12 -12 -12 -12 -12 -11 -12 -12 -12 -11 -11 -11 -11 -12 -12 -12 -12 -12 -13 -13 -13 -13 -13 -13 -13 -13 -12 -12 -12 -12 -12 -12
-14 -13 -14 -14 -13 -12 -12 -12 -11 -11 -11 -11 -12 -12 -12 -12 -11 -12 -12 -12 -12 -11 -11 -12 -13 -13 -12 -12 -13 -14 -13 -13 -13 -13 -13 -13 -13 -13 -12 -12 -12 -12 -12
-14 -14 -15 -14 -13 -13 -12 -11 -11 -11 -11 -12 -12 -12 -12 -12 -12 -12 -12 -12 -11 -12 -12 -12 -13 -12 -12 -13 -14 -14 -13 -13 -13 -13 -13 -13 -13 -13 -12 -12 -13 -13 -13
-14 -15 -14 -14 -13 -12 -12 -12 -12 -11 -11 -12 -12 -12 -12 -12 -12 -12 -12 -12 -12 -12 -12 -12 -12 -13 -12 -13 -15 -14 -13 -13 -13 -13 -13 -13 -13 -13 -13 -13 -13 -13 -13
-14 -14 -14 -13 -11 -11 -11 -11 -11 -11 -12 -11 -12 -12 -12 -12 -12 -12 -12 -12 -12 -12 -12 -12 -13 -13 -13 -14 -14 -14 -14 -14 -14 -13 -13 -13 -13 -13 -13 -13 -13 -13 -13
-14 -13 -13 -12 -12 -12 -11 -11 -11 -11 -12 -12 -11 -12 -12 -12 -12 -12 -12 -12 -12 -12 -13 -12 -13 -13 -14 -15 -14 -14 -14 -14 -14 -14 -14 -13 -13 -13 -13 -14 -14 -14 -14
-14 -13 -13 -12 -12 -12 -12 -12 -12 -12 -12 -12 -12 -12 -12 -12 -12 -12 -12 -13 -13 -13 -13 -13 -13 -15 -16 -15 -15 -15 -14 -14 -14 -14 -14 -13 -13 -14 -14 -14 -14 -14 -14
-14 -14 -14 -13 -12 -12 -12 -12 -12 -12 -12 -12 -12 -12 -13 -12 -12 -12 -12 -13 -13 -13 -14 -14 -14 -16 -17 -16 -15 -15 -16 -14 -14 -14 -14 -14 -14 -14 -14 -14 -14 -14 -14
-13 -13 -14 -13 -13 -13 -13 -12 -12 -12 -12 -12 -12 -12 -12 -12 -12 -12 -13 -13 -13 -14 -14 -14 -15 -16 -16 -16 -16 -15 -15 -14 -14 -14 -14 -14 -14 -14 -14 -14 -15 -15 -15
-12 -12 -13 -14 -14 -12 -12 -12 -13 -13 -13 -13 -12 -12 -13 -13 -13 -13 -13 -13 -13 -14 -15 -16 -16 -16 -17 -17 -16 -15 -15 -14 -15 -15 -15 -14 -14 -14 -14 -14 -15 -15 -14
-12 -12 -12 -12 -13 -13 -12 -13 -13 -13 -12 -13 -12 -12 -13 -13 -13 -13 -13 -13 -14 -16 -16 -16 -16 -16 -16 -16 -15 -15 -15 -15 -15 -15 -15 -15 -15 -15 -14 -14 -14 -14 -14
-12 -12 -12 -12 -13 -13 -12 -13 -13 -13 -12 -13 -13 -13 -12 -12 -13 -13 -14 -14 -15 -16 -17 -17 -16 -16 -16 -16 -16 -15 -15 -15 -15 -15 -15 -15 -15 -15 -14 -14 -14 -14 -15
-13 -13 -13 -12 -12 -12 -13 -12 -13 -12 -12 -13 -12 -12 -12 -13 -14 -14 -15 -15 -16 -16 -17 -16 -16 -16 -16 -16 -16 -15 -15 -15 -15 -15 -15 -15 -15 -15 -15 -15 -15 -15 -15
-14 -14 -14 -13 -13 -13 -13 -13 -12 -13 -13 -13 -12 -12 -13 -14 -15 -14 -15 -15 -16 -16 -16 -16 -16 -16 -16 -16 -15 -15 -15 -15 -15 -15 -15 -15 -15 -15 -15 -16 -15 -15 -15
-13 -13 -14 -14 -13 -13 -13 -13 -13 -12 -13 -13 -13 -13 -14 -14 -14 -15 -15 -15 -15 -16 -16 -16 -16 -16 -16 -16 -16 -15 -15 -15 -15 -15 -15 -15 -15 -15 -16 -15 -15 -15 -15
-14 -14 -13 -14 -14 -13 -13 -13 -13 -13 -14 -14 -14 -14 -15 -14 -15 -15 -15 -15 -16 -15 -15 -16 -16 -16 -16 -16 -15 -15 -15 -15 -15 -15 -15 -14 -15 -15 -15 -15 -15 -15 -16
-14 -14 -14 -14 -14 -13 -13 -14 -14 -14 -14 -14 -14 -14 -15 -15 -15 -15 -15 -16 -16 -16 -16 -16 -16 -16 -15 -15 -16 -15 -15 -15 -15 -15 -16 -15 -15 -15 -15 -15 -16 -16 -16
-14 -14 -14 -14 -14 -14 -14 -13 -14 -14 -14 -15 -15 -15 -15 -15 -15 -15 -15 -16 -16 -16 -16 -16 -16 -16 -16 -16 -15 -15 -15 -15 -15 -15 -15 -15 -15 -15 -15 -15 -15 -16 -16
-14 -14 -14 -14 -14 -14 -14 -14 -14 -14 -14 -15 -15 -15 -15 -15 -15 -16 -16 -16 -16 -16 -16 -16 -16 -16 -16 -16 -16 -16 -16 -16 -16 -15 -15 -15 -15 -16 -15 -15 -16 -16 -17
Height
5785 5786 5788 5793 5795 5793 5797 5799 5799 5803 5810 5817 5821 5825 5829 5831 5831 5833 5835 5835 5837 5837 5838 5837 5837 5836 5835 5835 5834 5835 5834 5834 5835 5833 5834 5832 5833 5832 5831 5831 5831 5831 5830
5779 5782 5784 5788 5789 5790 5793 5798 5798 5799 5804 5810 5816 5820 5824 5828 5829 5829 5833 5835 5835 5835 5835 5835 5835 5833 5832 5833 5834 5833 5834 5832 5833 5832 5831 5832 5830 5831 5830 5830 5829 5828 5829
5776 5778 5782 5784 5783 5783 5790 5791 5796 5798 5802 5806 5812 5816 5820 5824 5825 5828 5830 5832 5833 5833 5834 5834 5832 5830 5830 5831 5832 5832 5831 5830 5831 5830 5830 5830 5829 5829 5830 5830 5828 5828 5828
5772 5775 5776 5779 5780 5780 5782 5785 5788 5796 5799 5803 5808 5813 5818 5819 5821 5824 5826 5828 5830 5831 5832 5831 5830 5828 5828 5830 5830 5829 5829 5830 5828 5829 5828 5829 5828 5828 5828 5829 5828 5827 5827
5769 5769 5772 5774 5774 5774 5776 5782 5782 5787 5796 5798 5805 5809 5815 5815 5819 5821 5823 5825 5826 5828 5829 5828 5826 5825 5826 5827 5827 5828 5827 5827 5826 5827 5827 5827 5826 5826 5827 5827 5826 5826 5825
5766 5766 5767 5767 5767 5770 5772 5773 5778 5783 5787 5794 5801 5805 5809 5813 5816 5818 5820 5822 5823 5825 5824 5823 5822 5823 5823 5823 5824 5824 5825 5825 5825 5824 5824 5824 5825 5825 5825 5824 5823 5822 5822
5761 5763 5763 5764 5762 5765 5763 5766 5774 5781 5782 5792 5796 5802 5806 5809 5812 5816 5818 5818 5819 5821 5821 5819 5818 5819 5820 5821 5821 5821 5822 5822 5822 5822 5823 5823 5823 5823 5823 5822 5820 5820 5819
5752 5755 5756 5756 5759 5763 5762 5761 5766 5777 5781 5786 5793 5799 5803 5806 5809 5812 5815 5815 5815 5816 5817 5816 5816 5815 5816 5817 5817 5819 5819 5820 5820 5820 5821 5821 5821 5821 5821 5820 5819 5818 5817
5744 5747 5749 5749 5751 5755 5758 5760 5764 5772 5780 5785 5790 5795 5799 5804 5806 5809 5810 5810 5811 5811 5813 5812 5812 5811 5811 5814 5815 5817 5817 5818 5819 5819 5820 5820 5820 5820 5818 5817 5817 5816 5815
5740 5742 5744 5744 5746 5750 5751 5757 5763 5770 5776 5780 5788 5792 5795 5800 5802 5804 5806 5805 5807 5807 5808 5809 5807 5806 5807 5810 5813 5815 5815 5816 5817 5818 5818 5819 5818 5818 5817 5815 5814 5813 5813
5738 5742 5740 5743 5744 5746 5750 5754 5760 5765 5772 5777 5783 5786 5793 5796 5798 5799 5800 5801 5803 5803 5803 5806 5804 5802 5803 5807 5810 5811 5812 5813 5815 5816 5815 5815 5815 5814 5813 5813 5812 5811 5811
5735 5738 5741 5741 5739 5739 5745 5750 5756 5760 5769 5773 5777 5784 5789 5792 5795 5797 5796 5794 5797 5799 5797 5799 5801 5799 5800 5802 5806 5807 5809 5811 5812 5812 5811 5812 5812 5811 5810 5809 5808 5808 5808
5732 5734 5737 5736 5735 5736 5741 5744 5753 5757 5764 5770 5775 5781 5784 5788 5792 5791 5789 5789 5792 5794 5792 5792 5794 5794 5796 5800 5803 5804 5807 5807 5809 5810 5809 5808 5808 5808 5808 5806 5805 5804 5803
5731 5732 5734 5735 5737 5738 5743 5748 5754 5757 5762 5766 5774 5778 5782 5785 5785 5786 5785 5785 5787 5789 5788 5788 5790 5791 5794 5797 5800 5802 5804 5805 5806 5807 5808 5805 5804 5804 5804 5803 5802 5801 5798
5732 5733 5736 5738 5737 5739 5742 5748 5752 5756 5761 5767 5771 5775 5778 5780 5779 5780 5781 5780 5780 5780 5781 5783 5786 5788 5791 5795 5799 5800 5804 5805 5805 5805 5804 5803 5801 5801 5801 5799 5798 5795 5794
5732 5734 5735 5737 5738 5741 5745 5750 5752 5754 5758 5763 5768 5771 5774 5774 5773 5775 5773 5774 5773 5776 5777 5779 5782 5785 5789 5792 5796 5799 5800 5801 5800 5800 5800 5799 5798 5798 5796 5795 5792 5790 5789
5729 5732 5735 5735 5739 5738 5744 5748 5748 5751 5756 5760 5764 5766 5768 5766 5769 5766 5768 5768 5770 5771 5773 5776 5779 5783 5787 5790 5793 5795 5796 5796 5796 5797 5796 5795 5794 5793 5791 5788 5786 5785 5782
5725 5728 5732 5734 5736 5737 5741 5744 5745 5748 5752 5756 5759 5760 5763 5763 5760 5762 5763 5764 5766 5769 5772 5774 5778 5782 5785 5788 5790 5790 5792 5792 5792 5791 5790 5788 5787 5786 5784 5782 5780 5778 5776
5721 5722 5726 5729 5733 5734 5738 5739 5743 5745 5746 5750 5754 5755 5756 5756 5757 5758 5760 5762 5763 5766 5771 5773 5777 5779 5781 5783 5785 5787 5788 5788 5787 5785 5784 5783 5781 5778 5776 5774 5772 5771 5768
5723 5723 5723 5726 5730 5731 5733 5735 5739 5741 5743 5746 5748 5750 5752 5751 5753 5756 5758 5761 5762 5767 5771 5773 5776 5777 5778 5780 5782 5782 5782 5782 5782 5781 5779 5777 5774 5772 5769 5766 5765 5763 5761
5728 5726 5728 5728 5728 5730 5732 5733 5735 5737 5740 5741 5744 5747 5744 5748 5752 5755 5758 5759 5762 5764 5767 5771 5773 5773 5775 5776 5776 5776 5775 5776 5775 5773 5771 5769 5767 5765 5763 5760 5758 5755 5752
5732 5729 5729 5730 5731 5730 5733 5734 5734 5735 5738 5740 5741 5742 5743 5748 5752 5755 5756 5758 5759 5762 5763 5766 5768 5768 5770 5772 5772 5771 5771 5770 5768 5767 5765 5763 5760 5758 5755 5752 5749 5747 5744
5732 5732 5731 5731 5734 5733 5732 5732 5733 5734 5738 5738 5740 5743 5745 5748 5751 5751 5753 5754 5757 5760 5761 5763 5764 5765 5766 5766 5766 5765 5764 5762 5761 5760 5759 5756 5754 5751 5749 5746 5742 5740 5736
5731 5732 5732 5734 5735 5735 5733 5733 5733 5736 5739 5738 5740 5743 5744 5745 5746 5745 5748 5749 5754 5754 5758 5759 5760 5759 5759 5760 5759 5758 5757 5754 5752 5752 5750 5749 5746 5743 5741 5738 5735 5731 5725
5733 5733 5733 5734 5736 5735 5734 5736 5737 5736 5739 5740 5739 5741 5743 5744 5742 5744 5745 5748 5752 5751 5754 5755 5754 5753 5752 5752 5751 5750 5749 5747 5745 5743 5742 5739 5736 5734 5731 5728 5724 5719 5714
5732 5734 5732 5733 5733 5734 5734 5734 5736 5739 5739 5737 5737 5738 5738 5740 5738 5743 5745 5747 5744 5748 5749 5748 5747 5747 5746 5745 5745 5744 5742 5740 5738 5736 5734 5730 5728 5725 5721 5717 5712 5707 5703
Wind_Speed
31 29 34 33 40 41 27 34 31 32 24 22 18 19 19 21 21 25 26 25 25 23 23 20 18 16 18 18 16 15 13 13 15 12 12 9 10 10 7 7 5 5 5
34 31 35 34 38 42 42 25 26 26 27 23 20 19 22 25 22 21 26 26 25 22 21 20 19 18 18 18 16 14 15 13 15 13 10 11 9 9 7 6 5 5 7
36 36 37 35 42 45 44 42 34 27 24 19 22 21 23 22 22 25 27 26 26 24 22 24 22 20 18 18 15 15 16 15 14 15 11 10 4 4 5 6 4 4 4
28 32 31 34 40 43 28 39 41 44 28 21 21 20 23 23 26 27 26 25 23 22 22 22 23 21 18 16 15 17 16 16 13 14 9 6 4 5 5 4 4 4 4
28 31 31 33 37 40 45 33 38 44 39 24 25 21 28 25 26 25 25 24 24 21 20 21 24 23 20 19 18 18 15 15 13 12 7 6 6 5 4 4 4 4 5
32 33 32 35 36 38 38 38 36 35 41 28 28 27 30 27 25 25 25 25 23 21 21 25 23 23 21 20 17 15 16 15 13 9 8 8 6 5 4 3 4 5 7
33 33 33 30 31 37 39 40 35 32 33 31 29 31 30 27 26 26 22 22 20 20 21 23 22 22 21 22 19 18 16 13 10 9 9 8 5 5 4 5 5 7 8
33 35 35 37 35 39 34 34 39 29 46 36 31 33 31 30 27 27 27 23 23 22 21 21 22 22 23 22 19 19 14 14 12 11 10 7 5 5 6 7 8 9 9
23 28 34 35 38 29 26 37 40 35 45 45 39 35 32 30 29 28 27 24 22 23 21 23 22 24 26 23 20 16 16 15 14 12 9 7 6 7 8 9 9 9 8
20 21 21 24 29 30 34 39 39 43 40 44 38 34 31 30 30 30 29 25 26 18 21 23 21 28 27 24 16 18 19 18 15 12 10 7 8 9 9 7 6 6 8
21 19 21 23 24 26 28 31 40 47 36 32 36 35 32 28 31 29 25 21 21 18 21 18 20 24 24 20 17 20 19 16 14 13 9 8 9 9 8 6 7 7 9
12 10 16 22 22 23 27 26 41 37 38 40 34 31 30 30 31 24 27 27 21 21 20 16 20 24 24 19 22 21 17 16 16 13 10 10 10 9 8 9 9 10 12
10 13 10 13 15 17 30 31 37 31 32 31 34 34 28 30 26 28 26 25 25 23 19 19 18 22 24 21 23 23 19 16 15 14 12 10 10 10 10 10 10 11 12
10 10 6 10 10 16 25 25 18 25 30 21 21 23 21 21 23 18 17 17 19 19 21 17 18 22 26 27 26 21 18 16 13 15 15 13 11 11 10 10 12 14 14
8 9 8 9 13 17 16 16 16 19 26 26 22 25 23 22 26 22 17 17 24 22 20 19 21 27 27 26 22 16 15 16 15 17 16 16 14 14 14 13 13 16 17
9 12 11 8 7 9 11 7 12 15 19 28 22 24 27 23 24 25 19 20 24 21 19 18 22 29 27 27 20 18 15 15 16 17 20 19 19 20 20 22 23 24 26
10 11 14 12 14 15 15 17 17 19 16 25 28 29 24 20 26 23 22 23 26 21 18 22 27 28 25 23 19 19 14 17 20 19 21 24 25 29 29 27 26 27 32
13 17 16 16 16 17 20 18 16 25 21 23 28 26 25 25 24 26 26 28 26 18 21 26 27 26 23 21 22 18 19 18 21 24 25 27 29 31 32 31 31 33 36
7 13 19 20 19 20 25 20 21 22 20 22 23 25 26 30 25 23 27 24 20 20 26 23 24 24 24 24 21 19 20 21 24 27 30 28 28 29 32 34 34 36 38
10 9 12 19 22 23 26 23 23 24 20 21 23 25 29 23 24 24 21 16 20 22 21 21 23 25 24 21 21 21 22 23 26 28 30 31 31 33 34 35 38 40 40
9 13 12 13 13 19 19 18 17 16 14 10 11 15 12 15 19 20 18 18 19 20 22 24 26 23 23 24 23 24 25 28 29 30 32 34 35 35 33 38 39 41 42
4 7 10 8 10 12 13 15 15 15 15 14 12 11 14 16 18 18 18 19 19 21 23 24 26 28 25 25 26 28 29 31 33 35 34 35 37 37 41 41 42 42 46
5 5 7 8 8 11 13 12 11 8 10 11 11 9 14 14 17 19 18 15 19 23 24 28 29 26 28 29 30 31 32 33 32 31 31 30 32 34 38 38 40 44 48
6 5 7 8 6 7 8 11 13 14 14 12 12 13 15 16 16 19 19 20 25 24 29 30 27 26 29 30 29 31 33 35 32 31 34 35 33 35 37 38 43 47 51
7 7 6 5 6 6 5 6 9 10 12 12 10 10 10 12 11 16 18 21 25 26 29 26 27 28 31 30 28 29 30 30 30 31 33 35 38 39 39 42 47 52 54
6 5 5 6 7 8 7 8 10 11 11 12 11 11 9 10 9 14 17 22 24 28 28 28 26 29 30 35 35 34 33 32 33 34 37 38 38 39 43 47 51 52 52
Wind_Direction
237 243 250 246 252 257 261 231 224 217 207 218 229 238 244 256 263 272 272 273 275 279 281 278 271 269 268 271 272 278 278 280 283 284 285 291 296 300 294 290 292 293 289
240 243 256 258 258 259 256 243 220 212 205 205 225 235 250 256 261 265 270 278 280 278 279 274 274 270 269 271 271 271 274 275 277 281 289 295 307 300 296 288 286 292 293
252 256 262 260 257 263 255 252 241 220 201 206 225 241 255 258 264 264 266 273 279 283 282 279 270 265 263 266 266 269 269 271 274 281 287 292 297 289 282 278 284 291 298
265 262 268 264 261 262 235 245 239 236 204 209 231 250 257 253 259 263 273 279 283 288 285 277 268 265 266 263 260 263 265 270 278 282 286 280 275 271 263 277 290 303 309
273 272 273 274 269 272 241 224 215 235 230 216 230 240 246 252 256 265 271 280 283 278 274 271 267 268 265 259 255 255 262 264 273 272 265 259 248 249 265 281 307 319 326
265 263 270 270 267 263 217 191 209 223 220 219 224 232 242 250 258 264 269 272 274 267 268 267 267 267 257 253 250 255 257 260 258 251 244 236 239 254 269 291 302 320 320
257 257 260 260 266 259 243 197 213 228 198 228 223 233 242 245 256 264 265 268 266 273 279 272 262 257 253 250 247 250 247 249 237 234 232 233 240 260 283 291 307 311 313
262 258 262 264 256 248 255 219 196 221 227 210 221 231 237 246 255 263 270 265 264 266 276 285 261 252 251 242 241 243 236 227 225 224 228 235 250 266 280 298 304 307 310
260 257 263 262 259 258 234 212 211 217 231 226 228 232 237 249 257 262 261 259 261 271 279 281 258 243 246 230 231 224 217 222 223 224 233 242 249 264 281 299 305 313 318
251 258 255 250 247 262 253 202 225 227 213 211 225 226 236 247 258 255 255 255 263 271 294 282 248 245 244 230 209 207 210 215 220 224 235 251 259 286 298 304 314 321 322
251 241 240 248 254 258 263 226 235 217 208 211 219 245 235 256 252 252 250 246 248 274 282 281 251 244 241 224 197 205 212 215 223 230 241 247 270 282 291 301 305 316 316
244 234 252 257 247 242 236 225 188 203 214 223 225 215 236 249 246 260 238 244 250 269 261 251 269 244 238 208 196 211 212 221 228 237 237 248 268 281 282 289 308 314 318
254 266 275 249 200 207 211 208 193 185 199 219 226 224 223 235 245 252 250 254 244 253 239 255 256 226 224 202 201 211 216 224 238 245 247 253 272 279 283 297 299 300 308
240 273 268 209 175 194 200 172 198 204 211 204 198 215 216 226 231 248 248 240 225 248 253 250 237 202 200 197 206 209 216 231 244 255 259 264 265 274 283 295 305 302 316
230 239 242 193 157 169 159 171 173 192 188 202 219 224 226 237 234 250 256 228 232 247 249 249 229 193 195 200 202 205 223 241 256 261 264 272 273 273 276 285 308 316 316
216 217 229 197 150 143 152 181 203 194 194 203 204 209 226 240 247 245 251 234 241 240 251 234 222 186 191 202 204 215 233 250 263 274 269 270 272 273 278 285 298 307 306
221 214 213 215 211 209 219 233 214 209 217 214 224 224 242 247 239 244 245 246 249 239 229 216 200 190 190 202 206 225 242 258 266 277 283 281 281 281 283 289 297 301 304
227 216 214 217 221 211 206 213 211 204 210 231 229 232 237 247 246 245 247 246 240 217 211 196 188 186 197 200 220 230 244 261 274 277 284 288 285 286 291 296 298 301 302
229 214 222 213 218 207 221 211 205 214 223 233 235 238 249 261 247 245 247 230 210 200 189 192 192 198 206 219 229 241 255 267 280 286 285 290 296 297 296 294 297 303 303
99 143 197 217 212 211 220 209 215 226 221 231 240 246 240 238 244 234 218 199 176 183 195 201 204 210 220 229 237 248 260 272 279 280 285 289 292 291 291 293 298 302 304
108 109 105 129 166 188 182 175 175 172 176 179 190 186 178 203 207 189 184 173 182 198 206 213 219 222 232 239 247 258 266 273 280 285 287 289 291 288 289 291 296 299 300
137 131 132 140 139 143 153 153 151 151 160 167 159 158 157 175 178 181 185 199 204 214 218 221 225 230 239 248 255 261 269 276 282 282 286 286 287 280 290 293 300 301 299
183 157 144 145 166 162 153 151 146 151 170 172 168 171 183 196 200 204 202 209 220 228 228 230 234 241 249 254 260 266 274 281 280 284 292 290 283 285 285 294 299 299 301
167 167 151 148 161 165 155 153 158 169 181 181 183 192 197 212 223 215 210 217 227 228 233 237 244 252 256 264 270 273 274 280 281 281 279 285 289 293 293 296 298 300 303
195 199 207 208 221 209 189 199 200 191 192 188 188 198 204 214 220 222 232 230 233 234 239 240 248 258 262 266 269 285 287 284 286 288 289 294 293 295 295 300 302 303 302
191 207 214 226 237 232 226 231 233 224 223 221 216 212 212 228 239 241 244 246 244 244 242 245 247 254 257 264 272 278 282 283 285 286 290 293 295 298 299 302 301 300 300